DELTA 1 DEB, 27728

Orbit data source: Space-Track

DELTA 1 DEB, 27728 is space debris in LEO originally from a launch on Thu, 29 Jul 1976 UTC launched from the Air Force Western Test Range (AFWTR). Debris objects in space refer to the collection of defunct objects orbiting the Earth. Examples of debris include non-operational satellites, rocket bodies, and fragments generated from explosions, collisions, or faulty payload assembly.

Loading next visibility...
Identifier
27728, 1976-077FT
Orbit
LEO
Country
Flag of USUS
Related business
Manufacturer
Unknown
Mission
Spacecraft
Bus & Motor
Unknown
Mass
Unknown
Launch date (UTC)
1976-07-29 (50 years ago)
Launch vehicle
Unknown
Launch site
Air Force Western Test Range (AFWTR)
Object type
Payload
Rocket body
Debris
Shape & HBR
Unknown shape, 0.1 m
Radar Cross Section
Small (<0.1 m²)

Expand to show TLE details & history
Last TLE update: 2 days ago

TLE from 2 days ago
0 DELTA 1 DEB
1 27728U 76077FT  26117.08356238  .00002321  00000-0  28560-1 0  9995
2 27728 102.4256 228.5340 0379872 257.5333 292.8288 11.85723899420228
Epoch: 2026-04-27T02:00Z
TLE epoch observation values (Epoch: 2026-04-27T02:00:19.789Z)
Latitude
-6.26557°
Longitude
161.99374°
Altitude
1,639.347 km
Speed
7.099 km/s
True Right ascension
03h 08m 37s
True Declination
-6° 13' 57"
Sunlit
Object was in daylight at epoch
Visualization orbit readout
Latitude
Unknown
Longitude
Unknown
Altitude
Unknown
Speed
Unknown
Apparent Right ascension
Unknown
Apparent Declination
Unknown
Sunlit
N/A
Visualization observer readout
Local Sidereal Time
15:32:07
Azimuth
Unknown
Elevation
Unknown
Doppler factor
Unknown
Orbital elements
Apogee altitude
2,051.587 km
Perigee altitude
1,434.582 km
Semi-major axis
8,121.221 km
Eccentricity
0.03799
Inclination
102.4256°
RAAN
228.534°
Arg. of periapsis
257.5333°
True anomaly
288.74499°
Mean anomaly
292.8288°
Eccentric anomaly
290.79407°
Mean motion
2.96559 °/min
Orbital period
121.39 mins
BSTAR
0.02856
Loading maneuver chart data...
Computing Atmospheric mass density...
Loading historical data...
Loading historical data...
Loading historical data...
Loading historical data...
Loading historical data...
Loading historical data...
Loading historical data...

Documentation

Showing up to 5 results
|